Location: ??
(35.1714°N, 128.2806°E)
Time: 15:43:37
(UTC+00:00)

Cosmos 2180 Rocket - Pass Details

Date: 29 October 2020
Orbit: 953 x 1006 km, 82.9° (Epoch: 30 November)

Event Time Altitude Azimuth Distance (km) Brightness Sun altitude
Rises 19:10:45 0° 354° (N) 3,681 7.5 -32.3°
Reaches altitude 10° 19:13:17 10° 355° (N) 2,722 6.8 -31.7°
Enters shadow 19:14:19 16° 355° (N) 2,338 6.5 -31.5°
Exits shadow 19:20:06 74° 156° (SSE) 999 4.4 -30.4°
Drops below altitude 10° 19:25:40 10° 173° (S) 2,677 6.8 -29.2°
Sets 19:28:08 0° 174° (S) 3,615 7.5 -28.7°
